Ames, IA

4:58 AM CDT on August 18, 2017 (GMT -0500)
Ames Municipal

Weather History for KAMW - July, 2013

Change the Weather History Date:

Saturday, July 27, 2013

  Actual Average Record
Temperature  
Mean Temperature 62 °F 73 °F  
Max Temperature 71 °F 84 °F 91 °F (2010)
Min Temperature 52 °F 63 °F 50 °F (2004)
Degree Days  
Heating Degree Days 3 0  
Month to date heating degree days 3 0  
Since 1 June heating degree days 45 24  
Since 1 July heating degree days 3 0  
Cooling Degree Days 0 8  
Month to date cooling degree days 251 233  
Year to date cooling degree days 493 456  
Since 1 June cooling degree days 438 407  
Growing Degree Days 10 (Base 50)    
Moisture  
Dew Point 46 °F    
Average Humidity 63    
Maximum Humidity 89    
Minimum Humidity 36    
Precipitation  
Precipitation 0.00 in 0.11 in 1.50 in (1990)
Month to date precipitation 1.24 4.14  
Sea Level Pressure  
Sea Level Pressure 30.04 in    
Wind  
Wind Speed 11 mph (NW)    
Max Wind Speed 22 mph    
Max Gust Speed 31 mph    
Visibility 10 miles    
Events      
T = Trace of Precipitation, MM = Missing Value Source: NWS Daily Summary

Daily Weather History Graph

Daily Weather History Graph

Search for Another Location

Airport or City:

Trip Planner

Search our weather history database for the weather conditions in past years. The results will help you decide how hot, cold, wet, or windy it might be!

Date:

Astronomy

Jul. 27, 2013 Rise Set
Actual Time 6:03 AM CDT 8:38 PM CDT
Civil Twilight 5:31 AM CDT 9:10 PM CDT
Nautical Twilight 4:51 AM CDT 9:49 PM CDT
Astronomical Twilight 4:05 AM CDT 10:34 PM CDT
Moon 11:18 PM CDT (7/27) 11:51 AM CDT (7/27)
Length of Visible Light 15h 38m
Length of Day
14h 34m
Waning Gibbous, 70% of the Moon is Illuminated
Jul 27
Waning Gibbous
Jul 29
Last Quarter
Aug 6
New
Aug 14
First Quarter
Aug 20
Full

Hourly Weather History & Observations

Time (CDT) Temp. Dew Point Humidity Pressure Visibility Wind Dir Wind Speed Gust Speed Precip Events Conditions
12:53 AM 59.0 °F 51.1 °F 75% 30.05 in 10.0 mi NW 8.1 mph - N/A   Clear
1:53 AM 57.9 °F 51.1 °F 78% 30.05 in 10.0 mi NNW 9.2 mph - N/A   Clear
2:53 AM 55.9 °F 50.0 °F 80% 30.05 in 10.0 mi NNW 8.1 mph - N/A   Clear
3:53 AM 55.0 °F 50.0 °F 83% 30.05 in 10.0 mi North 11.5 mph - N/A   Clear
4:53 AM 53.1 °F 48.9 °F 86% 30.05 in 10.0 mi NNW 6.9 mph - N/A   Clear
5:53 AM 52.0 °F 48.9 °F 89% 30.06 in 10.0 mi NNW 8.1 mph - N/A   Clear
6:53 AM 53.1 °F 48.9 °F 86% 30.07 in 10.0 mi North 11.5 mph - N/A   Clear
7:53 AM 55.9 °F 48.9 °F 77% 30.08 in 10.0 mi North 10.4 mph - N/A   Clear
8:53 AM 59.0 °F 48.0 °F 67% 30.09 in 10.0 mi NNW 10.4 mph - N/A   Clear
9:53 AM 62.1 °F 46.9 °F 58% 30.08 in 10.0 mi NNW 12.7 mph 18.4 mph N/A   Partly Cloudy
10:53 AM 64.0 °F 46.9 °F 54% 30.08 in 10.0 mi North 11.5 mph - N/A   Mostly Cloudy
11:53 AM 64.9 °F 45.0 °F 48% 30.06 in 10.0 mi NNW 15.0 mph 23.0 mph N/A   Scattered Clouds
12:53 PM 64.9 °F 44.1 °F 47% 30.05 in 10.0 mi NW 16.1 mph 24.2 mph N/A   Mostly Cloudy
1:53 PM 66.9 °F 43.0 °F 42% 30.04 in 10.0 mi NNW 20.7 mph 27.6 mph N/A   Overcast
2:53 PM 68.0 °F 43.0 °F 40% 30.03 in 10.0 mi NNW 16.1 mph 31.1 mph N/A   Mostly Cloudy
3:53 PM 69.1 °F 43.0 °F 39% 30.01 in 10.0 mi NNW 11.5 mph 21.9 mph N/A   Mostly Cloudy
4:53 PM 69.1 °F 43.0 °F 39% 30.01 in 10.0 mi NW 16.1 mph - N/A   Scattered Clouds
5:53 PM 69.1 °F 41.0 °F 36% 29.99 in 10.0 mi NW 15.0 mph 20.7 mph N/A   Partly Cloudy
6:53 PM 68.0 °F 42.1 °F 39% 29.99 in 10.0 mi NW 9.2 mph - N/A   Partly Cloudy
7:53 PM 66.0 °F 42.1 °F 42% 29.99 in 10.0 mi North 8.1 mph - N/A   Partly Cloudy
8:53 PM 60.1 °F 44.1 °F 55% 29.99 in 10.0 mi WNW 5.8 mph - N/A   Clear
9:53 PM 55.0 °F 46.0 °F 72% 30.00 in 10.0 mi West 5.8 mph - N/A   Clear
10:53 PM 54.0 °F 46.0 °F 75% 30.01 in 10.0 mi West 6.9 mph - N/A   Clear
11:53 PM 54.0 °F 45.0 °F 72% 29.99 in 10.0 mi West 6.9 mph - N/A   Clear